Location: Chevoux
(46.3801°N, 4.9476°E)
Time: 22:59:33
(UTC+00:00)

Cosmos 1703 - Pass Details

Date: 28 January 2021
Orbit: 524 x 538 km, 82.5° (Epoch: 04 March)

Event Time Altitude Azimuth Distance (km) Brightness Sun altitude
Rises 17:40:23 0° 190° (S) 2,647 7.2 -10.8°
Reaches altitude 10° 17:42:31 10° 191° (SSW) 1,762 6.2 -11.1°
Maximum altitude 17:46:23 80° 279° (W) 539 3.3 -11.8°
Drops below altitude 10° 17:50:17 10° 7° (N) 1,777 5.7 -12.4°
Sets 17:52:27 0° 9° (N) 2,671 6.6 -12.8°
